Flag Weather past 2 weeks in Bergisch Gladbach, North Rhine-Westphalia, Germany

Now
41 °F

Clear.


Feels Like: 39 °F
Forecast: 36 / 44 °F
Wind: 3 mph from East

Location: Koeln / Bonn

Current Time: Nov 24, 2014 at 6:57:17 PM

Latest Report: Nov 24, 2014 at 6:20 PM


Visibility: 10 mi

Pressure: 30.30 "Hg

Humidity: 87%

Dew point: 37 °F

Location of Bergisch GladbachLocation

Historic Weather in Bergisch Gladbach — Graph

°F

Bergisch Gladbach temperature yesterday

Maximum temperature yesterday: 55 °F (at 2:20 PM)
Minimum temperature yesterday: 45 °F (at 8:20 AM)
Average temperature yesterday: 50 °F

Past Weeks' High & Low Weather Summary

 TemperatureHumidityPressure
High55 °F (Nov 10, 3:20 PM)100% (Nov 10, 3:20 AM)30.33 "Hg (Nov 10, 3:20 AM)
Low32 °F (Nov 20, 3:20 AM)58% (Nov 21, 1:50 PM)29.53 "Hg (Nov 16, 2:20 PM)
Average47 °F86%29.89 "Hg
* Reported Nov 9 5:20 PM — Nov 24 5:50 PM, Bergisch Gladbach, Weather by CustomWeather, © 2014

Note: Actual official high and low records may vary slightly from our data, if they occured in-between our weather recording intervals... More about our weather records

Advertising

Bergisch Gladbach weather history for previous 24 hours

 ConditionsComfort  
Time TempWeatherWind HumidityBarometerVisibility
5:50 PM
Nov 24
41 °FPassing clouds.2 mph87%30.30 "HgN/A
5:20 PM43 °FPassing clouds.2 mph81%30.30 "HgN/A
4:50 PM45 °FPassing clouds.3 mph76%30.30 "HgN/A
4:20 PM46 °FScattered clouds.5 mph76%30.30 "HgN/A
3:50 PM48 °FScattered clouds.5 mph71%30.30 "HgN/A
3:20 PM50 °FScattered clouds.5 mph67%30.27 "HgN/A
2:50 PM50 °FScattered clouds.3 mph71%30.27 "HgN/A
2:20 PM50 °FScattered clouds.6 mph71%30.27 "HgN/A
1:50 PM52 °FScattered clouds.3 mph72%30.27 "HgN/A
1:20 PM48 °FScattered clouds.2 mph76%30.27 "HgN/A
12:50 PM48 °FScattered clouds.3 mph87%30.27 "HgN/A
12:20 PM48 °FScattered clouds.3 mph87%30.27 "HgN/A
11:50 AM48 °FScattered clouds.8 mph82%30.27 "HgN/A
11:20 AM48 °FScattered clouds.6 mph87%30.27 "HgN/A
10:50 AM46 °FScattered clouds.5 mph93%30.27 "HgN/A
10:20 AM45 °FPartly sunny.6 mph93%30.27 "HgN/A
9:50 AM46 °FPartly sunny.7 mph93%30.24 "HgN/A
9:20 AM46 °FBroken clouds.6 mph93%30.24 "HgN/A
8:50 AM48 °FBroken clouds.7 mph94%30.21 "HgN/A
8:20 AM48 °FLight rain. Broken clouds.12 mph94%30.21 "Hg5 mi
7:50 AM48 °FPassing clouds.10 mph94%30.18 "Hg3 mi
7:20 AM48 °FLight rain. Passing clouds.10 mph94%30.18 "HgN/A
6:50 AM48 °FLight rain. Passing clouds.10 mph94%30.18 "HgN/A
6:20 AM48 °FLight rain. Passing clouds.8 mph94%30.15 "HgN/A
5:50 AM48 °FPassing clouds.8 mph94%30.15 "HgN/A
5:20 AM50 °FPassing clouds.8 mph88%30.12 "HgN/A
4:50 AM50 °FPassing clouds.14 mph94%30.09 "HgN/A
4:20 AM50 °FPassing clouds.5 mph88%30.09 "Hg2 mi
3:50 AM50 °FLight rain. Passing clouds.2 mph88%30.07 "HgN/A
3:20 AM50 °FPassing clouds.1 mph88%30.07 "HgN/A
2:50 AM50 °FPassing clouds.2 mph82%30.04 "HgN/A
2:20 AM50 °FLight rain. Passing clouds.5 mph82%30.04 "HgN/A
1:50 AM50 °FLight rain. Passing clouds.6 mph82%30.04 "HgN/A
1:20 AM50 °FPartly cloudy.7 mph82%30.04 "HgN/A
12:50 AM50 °FClear.7 mph82%30.04 "Hg10 mi
12:20 AM50 °FClear.7 mph82%30.01 "Hg10 mi
11:50 PM
Nov 23
50 °FClear.8 mph76%30.01 "Hg10 mi
11:20 PM50 °FClear.10 mph76%30.01 "Hg10 mi
10:50 PM50 °FClear.13 mph76%30.01 "Hg10 mi
10:20 PM50 °FClear.9 mph76%30.01 "Hg10 mi
9:20 PM50 °FClear.12 mph76%30.01 "Hg10 mi
8:50 PM50 °FClear.13 mph76%30.01 "Hg10 mi
8:20 PM50 °FClear.10 mph76%30.01 "Hg10 mi
7:50 PM50 °FClear.9 mph76%30.01 "Hg10 mi
7:20 PM50 °FLight rain. Clear.10 mph76%30.01 "HgN/A
6:50 PM50 °FClear.10 mph76%30.01 "Hg10 mi
6:20 PM50 °FClear.14 mph76%30.01 "Hg10 mi
Weather by CustomWeather, © 2014

See weather overviewHow to use our weather pages